1499508000.67,31325,18.0,74124.8,7.43,3.15,3.19,0,*77
1499508001.85,31326,18.0,74128.5,7.41,3.25,3.29,0,*76
1499508003.07,31327,18.0,74124.5,7.39,3.55,3.67,0,*75
1499508004.29,31328,18.0,74124.8,7.39,3.55,3.71,0,*7D
1499508005.55,31329,18.0,74126.0,7.39,3.37,3.45,0,*7F
1499508006.78,31330,18.0,74128.8,7.37,3.33,3.41,0,*79
1499508007.99,31331,18.0,74132.0,7.37,3.41,3.55,0,*78
1499508009.22,31332,18.0,74132.0,7.37,3.33,3.45,0,*7F
1499508010.44,31333,18.0,74134.0,7.33,3.49,3.53,0,*70
1499508011.64,31334,18.0,74132.3,7.33,3.49,3.59,0,*7D
1499508012.87,31335,18.0,74134.8,7.33,3.41,3.49,0,*75
1499508014.07,31336,18.0,74132.5,7.31,3.55,3.63,0,*79
1499508015.3,31337,18.0,74132.3,7.31,3.75,3.81,0,*76
1499508016.48,31338,18.0,74130.3,7.29,3.85,3.81,0,*7F
1499508017.72,31339,18.0,74134.0,7.29,3.75,3.75,0,*7A
1499508018.93,31340,18.0,74132.0,7.29,3.75,3.81,0,*7F
1499508020.11,31341,18.0,74134.5,7.29,3.81,3.81,0,*75
1499508021.3,31342,18.0,74132.0,7.25,3.89,3.93,0,*71
1499508022.5,31343,18.0,74134.5,7.27,3.81,3.89,0,*71
1499508023.74,31344,18.0,74136.5,7.27,3.71,3.81,0,*71
1499508024.93,31345,18.0,74134.3,7.25,3.55,3.67,0,*7C
1499508026.16,31346,18.0,74132.3,7.25,3.41,3.45,0,*7A
1499508027.33,31347,18.0,74132.3,7.25,3.55,3.59,0,*73
1499508028.57,31348,18.0,74132.3,7.21,3.37,3.41,0,*75
1499508029.82,31349,18.0,74132.5,7.19,3.37,3.45,0,*7B
1499508031.02,31350,18.0,74134.0,7.19,3.59,3.63,0,*7F
1499508032.22,31351,18.0,74134.3,7.21,3.49,3.55,0,*71
1499508033.42,31352,18.0,74130.8,7.15,3.55,3.59,0,*74
1499508034.68,31353,18.0,74126.8,7.15,3.45,3.41,0,*7D
1499508035.94,31354,18.0,74128.8,7.15,3.41,3.33,0,*7B
1499508037.15,31355,18.0,74126.0,7.13,3.29,3.41,0,*77
1499508038.4,31356,18.0,74124.0,7.11,3.37,3.49,0,*71
1499508039.65,31357,18.0,74126.3,7.11,3.41,3.45,0,*7D
1499508040.86,31358,18.0,74126.3,7.11,3.25,3.25,0,*76
1499508042.11,31359,18.0,74130.5,7.11,3.03,3.03,0,*77
1499508043.36,31360,18.0,74130.0,7.07,3.23,3.23,0,*7A
1499508044.59,31361,18.0,74130.0,7.07,3.33,3.25,0,*7C
1499508045.84,31362,18.0,74132.3,7.07,3.23,3.23,0,*78
1499508047.09,31363,18.0,74128.8,7.03,3.49,3.45,0,*71
1499508048.32,31364,18.0,74130.3,7.05,3.45,3.49,0,*70
1499508049.57,31365,18.0,74132.5,7.03,3.33,3.33,0,*7B
1499508050.83,31366,18.0,74128.8,7.03,3.11,3.07,0,*7F
1499508052.05,31367,18.0,74130.3,6.99,2.85,2.91,0,*7E
1499508053.28,31368,18.0,74128.5,6.97,3.11,3.15,0,*7E
1499508054.48,31369,18.0,74126.8,6.97,3.29,3.37,0,*74
1499508055.71,31370,18.0,74126.8,6.97,3.37,3.49,0,*7A
1499508056.93,31371,18.0,74124.5,6.95,3.29,3.37,0,*7F
1499508058.16,31372,18.0,74124.3,6.93,3.33,3.45,0,*74
1499508059.39,31373,18.0,74124.8,6.93,3.33,3.45,0,*75
1499508060.61,31374,18.0,74124.8,6.93,3.33,3.33,0,*73
1499508061.84,31375,18.0,74124.3,6.93,3.23,3.23,0,*72
1499508063.07,31376,18.0,74128.5,6.89,3.15,3.07,0,*79
1499508064.31,31377,18.0,74124.8,6.89,3.03,3.03,0,*7B
1499508065.51,31378,18.0,74124.5,6.89,3.33,3.29,0,*7F
1499508066.77,31379,18.0,74124.5,6.87,3.15,3.19,0,*77
1499508068.02,31380,18.0,74122.5,6.87,3.37,3.37,0,*7D
1499508069.22,31381,18.0,74130.0,6.87,3.25,3.25,0,*7C
1499508070.45,31382,18.0,74128.5,6.85,3.49,3.41,0,*75
1499508071.65,31383,18.0,74124.8,6.85,3.29,3.37,0,*73
1499508072.85,31384,18.0,74126.8,6.85,3.85,3.97,0,*78
1499508074.03,31385,18.0,74124.3,6.85,4.07,4.19,0,*75
1499508075.21,31386,18.0,74124.8,6.85,4.11,4.23,0,*78
1499508076.4,31387,18.0,74124.8,6.85,3.85,3.97,0,*7B
1499508077.58,31388,18.0,74124.8,6.85,4.23,4.23,0,*77
1499508078.76,31389,18.0,74124.3,6.85,4.33,4.57,0,*74
1499508079.94,31390,18.0,74128.5,6.85,4.41,4.57,0,*79
1499508081.12,31391,18.0,74134.5,6.85,4.53,4.53,0,*7F
1499508082.33,31392,18.0,74134.0,6.87,4.53,4.57,0,*7A
1499508083.51,31393,17.94,74132.0,6.85,4.23,4.33,0,*7C
1499508084.71,31394,18.0,74136.5,6.87,3.89,3.85,0,*74
1499508085.93,31395,18.0,74136.0,6.85,3.49,3.53,0,*70
1499508087.1,31396,18.0,74134.5,6.85,3.59,3.59,0,*78
1499508088.3,31397,18.0,74126.8,6.83,3.49,3.55,0,*72
1499508089.5,31398,18.0,74130.5,6.83,3.49,3.55,0,*7D
1499508090.72,31399,18.0,74132.0,6.81,3.81,3.97,0,*74
1499508091.92,31400,17.94,74134.0,6.81,3.81,3.81,0,*74
1499508093.11,31401,18.0,74134.8,6.81,4.41,4.49,0,*7D
1499508094.31,31402,18.0,74136.0,6.81,4.07,4.19,0,*79
1499508095.51,31403,18.0,74134.3,6.81,4.15,4.27,0,*76
1499508096.74,31404,18.0,74136.3,6.81,4.31,4.37,0,*76
1499508097.97,31405,18.0,74136.3,6.81,3.93,4.05,0,*79
1499508099.22,31406,18.0,74140.5,6.81,3.79,3.79,0,*72
1499508100.42,31407,18.0,74138.8,6.81,3.81,3.93,0,*70
1499508101.62,31408,18.0,74132.3,6.81,3.85,3.93,0,*7B
1499508102.81,31409,18.0,74132.5,6.79,3.63,3.53,0,*79
1499508104.04,31410,18.0,74138.0,6.75,3.71,3.75,0,*7A
1499508105.22,31411,18.0,74134.5,6.75,3.59,3.59,0,*7F
1499508106.45,31412,18.0,74138.0,6.75,3.79,3.75,0,*70
1499508107.68,31413,17.94,74134.3,6.73,3.97,4.07,0,*75
1499508108.9,31414,18.0,74138.3,6.73,4.01,4.07,0,*7A
1499508110.1,31415,18.0,74132.3,6.75,4.01,4.19,0,*72
1499508111.3,31416,18.0,74134.3,6.75,4.01,4.07,0,*7E
1499508112.51,31417,18.0,74132.8,6.73,4.07,4.07,0,*7F
1499508113.71,31418,18.0,74134.3,6.73,4.07,4.11,0,*77
1499508114.94,31419,18.0,74132.5,6.73,4.23,4.31,0,*72
1499508116.14,31420,18.0,74132.5,6.73,4.41,4.45,0,*7F
1499508117.41,31421,17.94,74134.3,6.73,4.71,4.71,0,*7A
1499508118.66,31422,18.0,74132.8,6.73,4.79,4.79,0,*79
1499508119.84,31423,18.0,74134.3,6.75,4.33,4.53,0,*78
1499508121.04,31424,18.0,74136.3,6.73,4.41,4.45,0,*7B
1499508122.24,31425,18.0,74138.0,6.73,3.85,3.85,0,*7E
1499508123.42,31426,17.94,74134.5,6.71,3.85,3.85,0,*7F
1499508124.59,31427,17.94,74132.8,6.71,3.81,3.85,0,*7A
1499508125.8,31428,18.0,74134.3,6.71,3.97,4.07,0,*7F
1499508127.01,31429,18.0,74136.8,6.71,4.05,4.07,0,*72
1499508128.21,31430,17.94,74136.0,6.71,4.05,4.07,0,*7A
1499508129.39,31431,17.94,74136.8,6.71,4.07,4.15,0,*7A
1499508130.61,31432,17.94,74138.5,6.71,4.31,4.37,0,*7C
1499508131.79,31433,17.94,74136.8,6.71,4.53,4.57,0,*7F
1499508133.0,31434,17.94,74134.8,6.71,4.53,4.67,0,*7B
1499508134.21,31435,17.94,74136.8,6.71,4.53,4.63,0,*7E
1499508135.41,31436,17.94,74134.5,6.71,4.57,4.67,0,*7D
1499508136.61,31437,18.0,74136.0,6.69,4.89,4.85,0,*7A
1499508137.83,31438,17.94,74136.5,6.71,5.01,5.07,0,*76
1499508139.06,31439,18.0,74136.8,6.71,5.01,4.97,0,*7F
1499508140.3,31440,18.0,74138.8,6.71,5.01,5.01,0,*7F
1499508141.48,31441,18.0,74140.0,6.75,5.15,5.15,0,*7A
1499508142.68,31442,18.0,74142.8,6.73,5.15,5.11,0,*7B
1499508143.91,31443,17.94,74140.5,6.73,5.27,5.15,0,*7F
1499508145.13,31444,17.94,74136.8,6.73,5.29,5.27,0,*77
1499508146.33,31445,18.0,74144.0,6.73,5.29,5.23,0,*72
1499508147.53,31446,17.94,74140.3,6.73,5.37,5.37,0,*7B
1499508148.73,31447,17.94,74136.8,6.75,5.27,5.23,0,*78
1499508149.9,31448,18.0,74140.8,6.79,5.29,5.19,0,*7C
1499508151.09,31449,18.0,74140.0,6.75,5.15,5.23,0,*77
1499508152.26,31450,17.94,74142.5,6.79,5.33,5.29,0,*7D
1499508153.42,31451,17.94,74140.5,6.79,5.29,5.29,0,*77
1499508154.62,31452,17.94,74142.8,6.75,5.27,5.29,0,*76
1499508155.79,31453,18.0,74140.0,6.79,5.41,5.33,0,*70
1499508156.96,31454,18.0,74144.3,6.79,5.29,5.33,0,*79
1499508158.13,31455,17.94,74140.0,6.79,5.41,5.41,0,*73
1499508159.32,31456,18.0,74144.8,6.81,5.37,5.37,0,*77
1499508160.51,31457,18.0,74142.5,6.81,5.37,5.45,0,*73
1499508161.7,31458,17.94,74142.0,6.81,5.45,5.37,0,*7C
1499508162.9,31459,17.94,74142.3,6.81,5.37,5.37,0,*78
1499508164.09,31460,17.94,74140.8,6.81,5.37,5.45,0,*77
1499508165.26,31461,17.94,74140.3,6.83,5.29,5.33,0,*7A
1499508166.45,31462,17.94,74142.5,6.81,5.45,5.45,0,*70
1499508167.63,31463,17.94,74140.5,6.85,5.59,5.59,0,*75
1499508168.8,31464,17.94,74142.0,6.83,5.45,5.49,0,*78
1499508169.97,31465,18.0,74144.3,6.83,5.37,5.45,0,*70
1499508171.14,31466,18.0,74142.0,6.83,5.45,5.45,0,*76
1499508172.32,31467,18.0,74142.3,6.83,5.37,5.37,0,*77
1499508173.51,31468,17.94,74142.5,6.81,5.33,5.37,0,*7E
1499508174.68,31469,18.0,74142.3,6.83,5.29,5.29,0,*79
1499508175.89,31470,17.94,74140.3,6.81,5.19,5.19,0,*73
1499508177.13,31471,17.94,74138.8,6.83,4.97,4.97,0,*70
1499508178.35,31472,18.0,74140.8,6.81,4.97,4.89,0,*7E
1499508179.55,31473,18.0,74138.3,6.81,4.85,4.85,0,*70
1499508180.8,31474,18.0,74142.8,6.81,4.79,4.79,0,*77
1499508182.06,31475,17.94,74138.8,6.81,5.01,5.01,0,*76
1499508183.31,31476,18.0,74140.3,6.81,5.01,4.97,0,*7B
1499508184.52,31477,18.0,74142.8,6.81,5.19,5.19,0,*74
1499508185.73,31478,18.0,74142.0,6.81,5.11,5.11,0,*7B
1499508186.92,31479,17.94,74138.8,6.81,5.29,5.33,0,*71
1499508188.11,31480,18.0,74142.3,6.81,5.45,5.45,0,*7C
1499508189.32,31481,18.0,74140.0,6.81,5.23,5.23,0,*7D
1499508190.55,31482,17.94,74140.3,6.81,5.11,5.01,0,*7F
1499508191.81,31483,17.94,74140.0,6.81,5.01,5.01,0,*7F
1499508192.98,31484,17.94,74142.3,6.79,5.07,5.15,0,*7C
1499508194.18,31485,17.94,74140.8,6.81,5.33,5.37,0,*7D
1499508195.37,31486,17.94,74142.8,6.81,5.37,5.37,0,*7A
1499508196.56,31487,17.94,74142.0,6.81,5.45,5.37,0,*7E
1499508197.75,31488,17.94,74142.8,6.81,5.45,5.45,0,*74
1499508198.95,31489,17.94,74144.5,6.81,5.49,5.49,0,*75
1499508200.14,31490,17.94,74142.0,6.81,5.49,5.49,0,*7D
1499508201.31,31491,17.94,74142.5,6.83,5.45,5.49,0,*72
1499508202.49,31492,17.94,74142.3,6.83,5.37,5.33,0,*79
1499508203.66,31493,17.94,74140.3,6.83,5.37,5.37,0,*7C
1499508204.85,31494,17.94,74146.3,6.81,5.29,5.29,0,*79
1499508206.02,31495,17.94,74140.3,6.83,5.29,5.33,0,*71
1499508207.21,31496,17.94,74142.5,6.81,5.45,5.37,0,*7E
1499508208.4,31497,17.94,74144.5,6.81,5.45,5.45,0,*7A
1499508209.57,31498,17.94,74142.3,6.83,5.45,5.45,0,*77
1499508210.75,31499,17.94,74142.0,6.83,5.29,5.33,0,*7D
1499508211.91,31500,17.94,74140.5,6.83,5.45,5.37,0,*72
1499508213.09,31501,17.94,74142.5,6.83,5.37,5.37,0,*76
1499508214.28,31502,17.94,74142.8,6.83,5.19,5.11,0,*7D
1499508215.46,31503,17.94,74142.3,6.83,5.11,5.07,0,*73
1499508216.64,31504,17.94,74140.0,6.83,5.11,5.11,0,*73
1499508217.83,31505,17.94,74140.0,6.83,5.07,5.11,0,*75
1499508219.03,31506,18.0,74142.0,6.81,5.29,5.23,0,*79
1499508220.2,31507,17.94,74140.8,6.83,5.29,5.33,0,*7B
1499508221.38,31508,17.94,74140.0,6.83,5.33,5.37,0,*7B
1499508222.55,31509,17.94,74140.8,6.83,5.33,5.37,0,*7A
1499508223.73,31510,17.94,74136.8,6.85,5.37,5.37,0,*70
1499508224.9,31511,17.94,74140.3,6.85,5.37,5.37,0,*71
1499508226.07,31512,17.94,74140.5,6.83,5.37,5.37,0,*74
1499508227.24,31513,17.94,74136.3,6.83,5.45,5.45,0,*75
1499508228.41,31514,17.94,74140.3,6.83,5.49,5.49,0,*72
1499508229.64,31515,17.94,74138.5,6.83,5.55,5.55,0,*73
1499508230.81,31516,17.94,74138.8,6.83,5.49,5.49,0,*70
1499508232.01,31517,17.94,74136.5,6.83,5.55,5.49,0,*7C
1499508233.18,31518,17.94,74136.8,6.83,5.49,5.49,0,*7E
1499508234.4,31519,17.94,74140.0,6.85,5.51,5.51,0,*79
1499508235.6,31520,17.94,74136.3,6.85,5.59,5.51,0,*7B
1499508236.78,31521,17.94,74136.8,6.85,5.59,5.63,0,*7B
1499508237.95,31522,17.94,74140.5,6.85,5.71,5.71,0,*71
1499508239.13,31523,17.94,74136.0,6.85,5.71,5.71,0,*70
1499508240.33,31524,17.94,74138.3,6.87,5.71,5.71,0,*75
1499508241.53,31525,17.94,74138.5,6.85,5.63,5.73,0,*77
1499508242.75,31526,17.94,74136.0,6.85,5.51,5.51,0,*75
1499508243.93,31527,17.94,74138.8,6.85,5.63,5.59,0,*7D
1499508245.14,31528,17.94,74138.3,6.87,5.71,5.71,0,*79
1499508246.39,31529,17.94,74138.8,6.87,5.81,5.81,0,*78
1499508247.64,31530,17.94,74136.0,6.87,5.81,5.73,0,*7D
1499508248.89,31531,17.94,74136.8,6.87,5.81,5.81,0,*71
1499508250.14,31532,17.94,74136.0,6.87,5.85,5.93,0,*75
1499508251.38,31533,17.94,74138.5,6.89,5.89,5.89,0,*7D
1499508252.56,31534,18.0,74142.0,6.89,5.95,5.95,0,*7A
1499508253.78,31535,17.94,74134.3,6.91,6.03,6.03,0,*72
1499508254.96,31536,17.94,74138.3,6.89,5.95,5.95,0,*78
1499508256.17,31537,17.94,74138.8,6.91,5.99,5.99,0,*70
1499508257.39,31538,17.94,74138.3,6.91,5.99,6.03,0,*7F
1499508258.57,31539,17.94,74138.0,6.89,5.95,6.07,0,*7F
1499508259.75,31540,17.94,74138.3,6.89,5.95,5.95,0,*79
1499508260.96,31541,17.94,74140.5,6.89,5.89,5.95,0,*75
1499508262.2,31542,17.94,74138.5,6.91,5.93,5.99,0,*78
1499508263.46,31543,17.94,74138.5,6.91,5.93,5.93,0,*73
1499508264.69,31544,17.94,74138.0,6.93,5.89,5.93,0,*7D
1499508265.92,31545,17.94,74140.8,6.89,5.89,5.89,0,*7C
1499508267.18,31546,17.94,74138.0,6.91,5.93,5.93,0,*76
1499508268.44,31547,17.94,74142.0,6.91,5.93,5.93,0,*77
1499508269.65,31548,17.94,74142.8,6.89,5.95,5.89,0,*7C
1499508270.9,31549,17.94,74142.0,6.91,5.81,5.81,0,*79
1499508272.11,31550,17.94,74140.5,6.89,5.73,5.67,0,*7D
1499508273.34,31551,17.94,74140.3,6.91,5.71,5.77,0,*76
1499508274.56,31552,17.94,74142.0,6.89,5.73,5.73,0,*7A
1499508275.79,31553,17.94,74136.8,6.91,5.71,5.77,0,*74
1499508277.01,31554,17.94,74138.3,6.93,5.81,5.81,0,*77
1499508278.27,31555,17.94,74140.0,6.91,5.89,5.89,0,*74
1499508279.53,31556,17.94,74142.8,6.91,5.89,5.81,0,*7F
1499508280.79,31557,17.94,74138.8,6.91,5.93,5.93,0,*76
1499508281.97,31558,17.94,74140.3,6.93,5.99,5.99,0,*7B
1499508283.2,31559,17.94,74136.3,6.93,5.93,5.93,0,*7A
1499508284.45,31560,17.94,74142.5,6.91,5.77,5.77,0,*72
1499508285.65,31561,17.94,74140.5,6.91,5.71,5.71,0,*73
1499508286.91,31562,17.94,74142.8,6.91,5.81,5.77,0,*79
1499508288.16,31563,17.94,74140.8,6.91,5.81,5.81,0,*71
1499508289.39,31564,17.94,74140.3,6.93,5.89,5.89,0,*74
1499508290.61,31565,17.94,74138.5,6.93,5.81,5.77,0,*7C
1499508291.84,31566,17.94,74146.3,6.91,5.77,5.71,0,*72
1499508293.08,31567,17.94,74140.5,6.91,5.77,5.77,0,*75
1499508294.33,31568,17.94,74140.3,6.91,5.77,5.77,0,*7A
1499508295.55,31569,17.94,74142.0,6.91,5.71,5.77,0,*7D
1499508296.73,31570,17.94,74140.5,6.93,5.67,5.71,0,*76
1499508297.95,31571,17.94,74142.5,6.93,5.77,5.77,0,*70
1499508299.21,31572,17.94,74142.0,6.91,5.89,5.89,0,*71
1499508300.42,31573,17.94,74144.8,6.91,5.99,5.99,0,*70
1499508301.63,31574,17.94,74140.0,6.91,6.11,6.11,0,*77
1499508302.84,31575,17.94,74138.5,6.91,5.99,6.03,0,*76
1499508304.05,31576,17.94,74140.0,6.91,5.99,6.11,0,*76
1499508305.29,31577,17.94,74142.3,6.91,5.93,5.99,0,*7E
1499508306.5,31578,17.94,74144.5,6.91,5.99,5.99,0,*7B
1499508307.69,31579,17.94,74140.3,6.93,5.99,6.03,0,*78
1499508308.87,31580,17.94,74140.8,6.93,5.99,6.11,0,*7D
1499508310.07,31581,17.94,74140.5,6.93,6.03,6.13,0,*7E
1499508311.3,31582,17.94,74146.3,6.95,6.13,6.25,0,*7F
1499508312.49,31583,17.94,74142.3,6.93,6.03,6.03,0,*7D
1499508313.68,31584,17.94,74140.5,6.93,6.07,6.17,0,*7B
1499508314.9,31585,17.94,74142.3,6.95,6.07,6.13,0,*78
1499508316.09,31586,17.94,74142.5,6.93,6.03,6.03,0,*78
1499508317.3,31587,17.94,74140.8,6.93,5.93,5.99,0,*73
1499508318.48,31588,17.94,74146.5,6.93,5.99,6.03,0,*76
1499508319.71,31589,17.94,74144.0,6.95,6.03,6.13,0,*70
1499508320.92,31590,17.94,74146.0,6.95,6.03,6.07,0,*7D
1499508322.13,31591,17.94,74146.5,6.95,6.03,6.03,0,*78
1499508323.31,31592,17.94,74146.8,6.97,5.95,6.03,0,*75
1499508324.52,31593,17.94,74142.5,6.95,5.95,6.03,0,*76
1499508325.75,31594,17.94,74146.0,6.95,5.93,6.03,0,*77
1499508326.98,31595,17.94,74146.0,6.97,5.81,5.85,0,*7A
1499508328.18,31596,17.94,74140.3,6.95,6.03,6.07,0,*7B
1499508329.4,31597,17.94,74144.3,6.95,6.07,6.13,0,*7B
1499508330.6,31598,17.94,74148.0,6.97,6.17,6.25,0,*72
1499508331.82,31599,17.94,74144.5,6.97,6.17,6.13,0,*76
1499508333.05,31600,17.94,74144.0,6.97,6.13,6.17,0,*75
1499508334.23,31601,17.94,74146.8,6.97,6.21,6.21,0,*70
1499508335.39,31602,17.94,74150.3,6.97,6.07,6.07,0,*73
1499508336.62,31603,17.94,74150.3,6.97,6.13,6.13,0,*72
1499508337.79,31604,17.94,74154.0,6.97,6.07,6.07,0,*75
1499508338.99,31605,17.94,74158.8,6.99,6.11,6.11,0,*7A
1499508340.25,31606,17.94,74154.8,6.99,5.89,5.85,0,*75
1499508341.45,31607,17.94,74156.3,6.97,5.51,5.59,0,*7E
1499508342.67,31608,17.94,74158.3,6.99,5.55,5.63,0,*72
1499508343.87,31609,17.94,74158.5,6.99,5.41,5.37,0,*77
1499508345.1,31610,17.94,74160.5,6.99,5.19,5.27,0,*73
1499508346.27,31611,17.94,74160.3,6.97,5.33,5.37,0,*75
1499508347.44,31612,17.94,74162.8,6.97,5.37,5.37,0,*72
1499508348.64,31613,17.94,74154.8,6.97,5.27,5.23,0,*77
1499508349.87,31614,17.94,74148.8,6.97,4.67,4.63,0,*70
1499508351.1,31615,17.94,74146.5,6.97,4.63,4.67,0,*71
1499508352.35,31616,17.94,74140.0,6.95,4.75,4.75,0,*74
1499508353.53,31617,17.94,74134.3,6.93,4.53,4.49,0,*78
1499508354.79,31618,17.94,74134.5,6.91,4.63,4.63,0,*7E
1499508356.06,31619,17.94,74128.5,6.91,4.71,4.71,0,*7F
1499508357.32,31620,17.94,74130.5,6.91,4.97,4.97,0,*75
1499508358.49,31621,17.94,74132.5,6.89,5.29,5.29,0,*7D
1499508359.66,31622,17.94,74136.3,6.93,5.49,5.49,0,*75
1499508360.83,31623,17.94,74140.3,6.93,5.29,5.29,0,*74
1499508362.04,31624,17.94,74146.3,6.91,5.19,5.11,0,*79
1499508363.25,31625,17.94,74144.8,6.91,5.33,5.33,0,*70
1499508364.45,31626,17.94,74146.5,6.91,5.45,5.41,0,*77
1499508365.66,31627,17.94,74148.0,6.91,5.29,5.19,0,*71
1499508366.89,31628,17.94,74150.8,6.91,4.97,4.85,0,*7E
1499508368.15,31629,17.94,74150.0,6.91,4.79,4.79,0,*7C
1499508369.38,31630,17.94,74148.5,6.89,4.67,4.67,0,*7D
1499508370.55,31631,17.94,74146.5,6.89,4.49,4.49,0,*7C
1499508371.79,31632,17.94,74150.5,6.89,4.59,4.67,0,*72
1499508372.99,31633,17.94,74148.5,6.89,4.49,4.59,0,*7F
1499508374.19,31634,17.94,74148.8,6.87,4.41,4.45,0,*73
1499508375.43,31635,17.94,74144.8,6.87,4.31,4.33,0,*74
1499508376.6,31636,17.94,74150.0,6.85,4.11,4.11,0,*77
1499508377.78,31637,17.94,74140.8,6.85,4.45,4.41,0,*72
1499508378.96,31638,17.94,74140.8,6.85,4.53,4.57,0,*7D
1499508380.17,31639,17.94,74140.3,6.85,4.57,4.63,0,*7F
1499508381.4,31640,17.94,74142.3,6.83,4.59,4.63,0,*79
1499508382.63,31641,17.94,74140.8,6.83,4.59,4.59,0,*71
1499508383.87,31642,17.94,74142.5,6.83,4.67,4.75,0,*71
1499508385.12,31643,17.94,74140.5,6.81,4.75,4.79,0,*7D
1499508386.37,31644,17.94,74138.8,6.81,4.79,4.79,0,*76
1499508387.62,31645,17.94,74140.0,6.81,4.79,4.79,0,*77
1499508388.85,31646,17.94,74140.3,6.83,4.79,4.79,0,*76
1499508390.08,31647,17.94,74142.8,6.81,4.85,4.97,0,*76
1499508391.31,31648,17.94,74136.5,6.83,4.75,4.75,0,*78
1499508392.56,31649,17.94,74138.5,6.81,4.63,4.63,0,*7B
1499508393.79,31650,17.94,74132.5,6.81,4.53,4.63,0,*70
1499508394.98,31651,17.94,74128.3,6.81,4.49,4.53,0,*79
1499508396.21,31652,17.94,74130.8,6.81,4.31,4.27,0,*76
1499508397.4,31653,17.94,74128.3,6.81,4.27,4.27,0,*70
1499508398.58,31654,17.94,74130.8,6.79,4.27,4.37,0,*71
1499508399.75,31655,17.94,74124.3,6.79,4.45,4.49,0,*7D
1499508400.96,31656,17.94,74130.0,6.75,4.31,4.33,0,*7C
1499508402.14,31657,17.94,74130.0,6.75,4.23,4.23,0,*7F
1499508403.35,31658,17.94,74126.5,6.75,4.33,4.31,0,*72
1499508404.52,31659,17.94,74130.3,6.71,4.27,4.15,0,*74
1499508405.76,31660,17.94,74130.8,6.71,3.67,3.67,0,*7F
1499508406.93,31661,17.94,74124.0,6.71,3.59,3.59,0,*7E
1499508408.15,31662,17.94,74120.3,6.69,3.55,3.49,0,*79
1499508409.35,31663,17.94,74120.5,6.69,3.59,3.55,0,*79
1499508410.56,31664,17.94,74120.5,6.65,3.85,3.89,0,*72
1499508411.81,31665,17.94,74124.5,6.65,4.31,4.31,0,*7F
1499508413.05,31666,17.94,74126.0,6.63,4.59,4.59,0,*7A
1499508414.28,31667,17.94,74126.5,6.63,4.71,4.79,0,*73
1499508415.46,31668,17.94,74126.5,6.63,4.81,4.81,0,*74
1499508416.69,31669,17.94,74128.5,6.63,4.67,4.71,0,*72
1499508417.95,31670,17.94,74128.5,6.65,4.59,4.67,0,*76
1499508419.2,31671,17.94,74128.5,6.65,4.67,4.67,0,*7A
1499508420.44,31672,17.94,74132.8,6.63,4.71,4.67,0,*78
1499508421.69,31673,17.94,74132.3,6.65,4.67,4.59,0,*75
1499508422.9,31674,17.94,74128.3,6.63,4.59,4.57,0,*77
1499508424.11,31675,17.94,74126.8,6.65,4.45,4.41,0,*7A
1499508425.28,31676,17.94,74130.3,6.63,4.45,4.49,0,*77
1499508426.45,31677,17.94,74122.3,6.63,4.49,4.49,0,*7A
1499508427.66,31678,17.94,74118.5,6.61,4.57,4.57,0,*77
1499508428.86,31679,17.94,74118.5,6.61,4.57,4.57,0,*76
1499508430.07,31680,17.94,74126.8,6.61,4.45,4.53,0,*77
1499508431.33,31681,17.94,74132.0,6.61,4.63,4.63,0,*71
1499508432.51,31682,17.94,74128.0,6.59,4.57,4.57,0,*79
1499508433.77,31683,17.94,74126.5,6.61,4.75,4.67,0,*70
1499508435.02,31684,17.94,74130.0,6.61,4.79,4.79,0,*74
1499508436.28,31685,17.94,74124.8,6.61,4.79,4.79,0,*75
1499508437.49,31686,17.94,74130.5,6.59,4.85,4.79,0,*7E
1499508438.69,31687,17.94,74130.8,6.61,5.15,5.15,0,*77
1499508439.9,31688,17.94,74130.8,6.61,5.15,5.15,0,*78
1499508441.1,31689,17.94,74126.3,6.61,5.11,5.15,0,*7D
1499508442.34,31690,17.94,74130.5,6.61,4.89,4.97,0,*7E
1499508443.56,31691,17.94,74130.0,6.61,4.79,4.89,0,*7F
1499508444.8,31692,17.94,74128.0,6.61,4.89,5.01,0,*72
1499508446.01,31693,17.94,74128.0,6.61,5.15,5.23,0,*77
1499508447.22,31694,17.94,74128.3,6.63,5.19,5.27,0,*7A
1499508448.44,31695,17.94,74130.3,6.63,5.27,5.27,0,*76
1499508449.62,31696,17.94,74134.8,6.63,5.37,5.37,0,*75
1499508450.79,31697,17.88,74130.8,6.63,5.29,5.29,0,*74
1499508451.96,31698,17.94,74136.3,6.63,5.29,5.29,0,*7B
1499508453.15,31699,17.94,74134.5,6.65,5.37,5.37,0,*7C
1499508454.39,31700,17.94,74134.8,6.63,4.93,5.01,0,*71
1499508455.59,31701,17.94,74132.8,6.65,4.81,4.81,0,*7C
1499508456.82,31702,17.94,74134.8,6.63,4.79,4.71,0,*71
1499508458.06,31703,17.94,74136.5,6.63,4.71,4.67,0,*7F
1499508459.3,31704,17.94,74142.8,6.63,4.93,5.01,0,*75
1499508460.56,31705,17.94,74138.5,6.65,5.01,5.05,0,*7C
1499508461.79,31706,17.94,74140.8,6.63,4.93,5.05,0,*73
1499508462.99,31707,17.94,74136.0,6.63,5.27,5.29,0,*72
1499508464.18,31708,17.94,74136.3,6.63,5.27,5.29,0,*7D
1499508465.36,31709,17.94,74134.5,6.63,5.15,5.19,0,*7E
1499508466.57,31710,17.94,74134.0,6.63,5.19,5.27,0,*77
1499508467.76,31711,17.94,74132.8,6.63,5.19,5.19,0,*7B
1499508468.98,31712,17.94,74134.8,6.63,5.27,5.27,0,*78
1499508470.16,31713,17.88,74128.5,6.63,5.19,5.15,0,*75
1499508471.4,31714,17.94,74138.8,6.63,5.01,5.05,0,*7A
1499508472.58,31715,17.88,74132.5,6.63,5.15,5.15,0,*7F
1499508473.78,31716,17.94,74136.5,6.65,5.19,5.15,0,*76
1499508474.99,31717,17.94,74134.3,6.65,5.11,5.11,0,*7B
1499508476.2,31718,17.94,74138.3,6.63,5.19,5.27,0,*7F
1499508477.41,31719,17.94,74140.8,6.65,5.19,5.19,0,*75
1499508478.63,31720,17.94,74146.3,6.65,5.27,5.37,0,*7E
1499508479.87,31721,17.94,74146.3,6.65,5.27,5.27,0,*7E
1499508481.06,31722,17.94,74142.0,6.63,5.11,5.11,0,*7B
1499508482.27,31723,17.94,74136.3,6.65,5.11,5.11,0,*7C
1499508483.5,31724,17.94,74136.3,6.63,4.93,5.05,0,*73
1499508484.7,31725,17.94,74138.5,6.65,5.15,5.15,0,*7A
1499508485.87,31726,17.94,74136.3,6.63,5.29,5.29,0,*7F
1499508487.07,31727,17.94,74136.3,6.65,5.41,5.37,0,*79
1499508488.24,31728,17.88,74136.3,6.63,5.29,5.29,0,*71
1499508489.41,31729,17.94,74138.5,6.63,5.29,5.29,0,*70
1499508490.58,31730,17.88,74138.0,6.63,5.29,5.37,0,*77
1499508491.76,31731,17.94,74138.8,6.63,5.37,5.41,0,*78
1499508492.96,31732,17.94,74136.8,6.63,5.49,5.51,0,*73
1499508494.15,31733,17.94,74142.8,6.65,5.29,5.37,0,*72
1499508495.35,31734,17.94,74136.8,6.63,5.51,5.49,0,*75
1499508496.53,31735,17.94,74138.8,6.63,5.41,5.41,0,*7D
1499508497.72,31736,17.88,74136.5,6.65,5.29,5.29,0,*78
1499508498.93,31737,17.94,74138.5,6.65,5.19,5.19,0,*79
1499508500.14,31738,17.94,74142.0,6.65,5.11,5.15,0,*72
1499508501.33,31739,17.94,74136.3,6.65,5.29,5.29,0,*77
1499508502.53,31740,17.94,74136.3,6.65,5.37,5.37,0,*79
1499508503.72,31741,17.94,74138.8,6.65,5.29,5.29,0,*78
1499508504.92,31742,17.94,74136.8,6.63,5.51,5.49,0,*74
1499508506.17,31743,17.94,74138.3,6.65,5.51,5.51,0,*7A
1499508507.39,31744,17.94,74136.8,6.65,5.51,5.49,0,*74
1499508508.59,31745,17.94,74136.3,6.65,5.37,5.41,0,*7D
1499508509.8,31746,17.94,74136.0,6.65,5.19,5.19,0,*7F
1499508511.0,31747,17.94,74140.0,6.65,5.41,5.49,0,*76
1499508512.22,31748,17.94,74138.0,6.65,5.51,5.59,0,*79
1499508513.4,31749,17.94,74138.5,6.63,5.59,5.59,0,*76
1499508514.6,31750,17.94,74140.0,6.63,5.51,5.63,0,*7F
1499508515.8,31751,17.94,74136.8,6.65,5.41,5.49,0,*71
1499508517.01,31752,17.94,74136.8,6.65,5.49,5.59,0,*7B
1499508518.21,31753,17.94,74136.5,6.67,5.67,5.73,0,*7C
1499508519.44,31754,17.88,74132.8,6.67,5.73,5.73,0,*7E
1499508520.67,31755,17.94,74136.0,6.67,5.85,5.85,0,*7F
1499508521.9,31756,17.88,74132.5,6.69,5.89,5.99,0,*73
1499508523.09,31757,17.94,74136.8,6.67,5.95,5.95,0,*7D
1499508524.34,31758,17.94,74138.0,6.69,5.93,5.93,0,*7C
1499508525.58,31759,17.94,74136.8,6.69,5.93,6.03,0,*77
1499508526.78,31760,17.94,74138.5,6.69,5.99,6.03,0,*77
1499508528.03,31761,17.88,74136.8,6.69,5.81,5.89,0,*7E
1499508529.24,31762,17.94,74138.5,6.69,5.67,5.67,0,*75
1499508530.43,31763,17.94,74136.8,6.67,5.63,5.63,0,*7A